Date String (YYYY-MM-DD hh:mm:ss) UTC,Instrument flags,Ambient pressure (hPa),Sample flow (lpm),Bypass flow (lpm),Sample temperature (°C),Ambient temperature (°C),ASC tube jacket temperature (°C),LED temperature (°C),Box temperature (°C),Sample RH (%),Span deviation,Mass concentration (μg/m³),Mass concentration (μg/m³),Mass concentration (μg/m³)
DateTimeUTC,F1_M11,P_M11,Q1_M11,Q2_M11,T1_M11,T2_M11,T3_M11,T4_M11,T5_M11,U1_M11,ZSPAN_M11,X0_M11,X2_M11,X1_M11
2022-08-13 14:00:00,,0833.1,5.00,0.00,30.1,28.6,00.0,38.5,31.6,34.6,0000.0,0014.03,0005.85,0004.90
2022-08-13 14:01:00,,0833.0,5.00,0.00,30.1,28.6,00.0,38.6,31.6,34.7,0000.0,0014.17,0005.83,0004.91
2022-08-13 14:02:00,,0833.1,5.00,0.00,30.1,28.7,00.0,38.6,31.7,34.8,0000.0,0013.67,0005.79,0004.93
2022-08-13 14:03:00,,0833.1,5.00,0.00,30.1,28.7,00.0,38.6,31.7,34.7,0000.0,0014.10,0005.80,0004.94
2022-08-13 14:04:00,,0833.1,5.00,0.00,30.1,28.8,00.0,38.6,31.7,34.6,0000.0,0013.68,0005.81,0004.97
2022-08-13 14:05:00,,0833.0,5.00,0.00,30.1,28.8,00.0,38.7,31.7,35.1,0000.0,0012.97,0005.85,0005.00
2022-08-13 14:06:00,,0833.1,5.00,0.00,30.3,28.9,00.0,38.7,31.8,34.6,0000.0,0012.50,0005.89,0005.02
2022-08-13 14:07:00,,0833.1,5.00,0.00,30.4,28.8,00.0,38.7,31.9,34.2,0000.0,0012.82,0005.88,0005.02
2022-08-13 14:08:00,,0833.1,5.02,0.00,30.4,28.2,00.0,38.7,31.7,33.8,0000.0,0013.01,0005.87,0005.02
2022-08-13 14:09:00,,0833.0,4.99,0.00,30.4,27.6,00.0,38.6,31.5,33.5,0000.0,0013.53,0005.87,0005.01
2022-08-13 14:10:00,,0833.0,5.00,0.00,30.3,27.5,00.0,38.6,31.4,33.3,0000.0,0013.48,0005.90,0005.04
2022-08-13 14:11:00,,0833.0,5.00,0.00,30.2,27.5,00.0,38.7,31.4,33.7,0000.0,0013.27,0005.91,0005.06
2022-08-13 14:12:00,,0833.0,5.01,0.00,30.2,27.6,00.0,38.7,31.4,34.2,0000.0,0013.52,0005.95,0005.08
2022-08-13 14:13:00,,0833.0,4.99,0.00,30.1,27.7,00.0,38.7,31.4,34.0,0000.0,0013.65,0005.97,0005.11
2022-08-13 14:14:00,,0833.1,5.02,0.00,30.1,27.9,00.0,38.7,31.5,33.9,0000.0,0013.29,0005.99,0005.13
2022-08-13 14:15:00,,0833.1,4.99,0.00,30.1,28.0,00.0,38.7,31.5,33.7,0000.0,0013.26,0006.04,0005.15
2022-08-13 14:16:00,,0833.1,5.00,0.00,30.1,28.1,00.0,38.7,31.5,33.7,0000.0,0013.23,0006.05,0005.17
2022-08-13 14:17:00,,0833.1,5.00,0.00,30.1,28.2,00.0,38.7,31.5,34.0,0000.0,0013.10,0006.04,0005.20
2022-08-13 14:18:00,,0833.1,5.00,0.00,30.1,28.3,00.0,38.7,31.6,33.6,0000.0,0013.09,0006.08,0005.23
2022-08-13 14:19:00,,0833.1,5.01,0.00,30.1,28.4,00.0,38.7,31.6,33.3,0000.0,0012.95,0006.14,0005.26
2022-08-13 14:20:00,,0833.1,5.00,0.00,30.1,28.5,00.0,38.7,31.6,33.5,0000.0,0012.66,0006.24,0005.28
2022-08-13 14:21:00,,0833.1,5.00,0.00,30.1,28.6,00.0,38.7,31.7,33.5,0000.0,0012.69,0006.23,0005.28
2022-08-13 14:22:00,,0833.1,5.00,0.00,30.1,28.6,00.0,38.7,31.7,33.8,0000.0,0012.80,0006.22,0005.27
2022-08-13 14:23:00,,0833.1,5.01,0.00,30.1,28.7,00.0,38.7,31.7,34.0,0000.0,0012.25,0006.18,0005.27
2022-08-13 14:24:00,,0833.0,5.00,0.00,30.1,28.7,00.0,38.7,31.7,33.8,0000.0,0012.16,0006.17,0005.28
2022-08-13 14:25:00,,0833.0,5.00,0.00,30.1,28.8,00.0,38.7,31.7,33.8,0000.0,0012.05,0006.16,0005.28
2022-08-13 14:26:00,,0833.0,5.00,0.00,30.1,28.8,00.0,38.7,31.7,34.1,0000.0,0011.79,0006.17,0005.30
2022-08-13 14:27:00,,0833.1,5.00,0.00,30.1,28.6,00.0,38.7,31.7,34.2,0000.0,0011.64,0006.19,0005.30
2022-08-13 14:28:00,,0833.1,5.01,0.00,30.0,28.0,00.0,38.7,31.5,34.0,0000.0,0012.09,0006.24,0005.31
2022-08-13 14:29:00,,0833.1,5.01,0.00,30.0,27.5,00.0,38.6,31.4,34.0,0000.0,0011.71,0006.24,0005.32
2022-08-13 14:30:00,,0833.0,5.00,0.00,29.9,27.4,00.0,38.6,31.3,34.1,0000.0,0011.46,0006.22,0005.34
2022-08-13 14:31:00,,0833.0,5.01,0.00,29.8,27.5,00.0,38.6,31.3,34.7,0000.0,0011.27,0006.16,0005.35
2022-08-13 14:32:00,,0833.0,4.99,0.00,29.8,27.6,00.0,38.5,31.3,34.6,0000.0,0011.35,0006.13,0005.36
2022-08-13 14:33:00,,0833.0,5.00,0.00,29.7,27.7,00.0,38.5,31.3,34.8,0000.0,0011.51,0006.13,0005.36
2022-08-13 14:34:00,,0833.0,5.00,0.00,29.7,27.9,00.0,38.5,31.4,34.7,0000.0,0012.37,0006.14,0005.38
2022-08-13 14:35:00,,0833.0,5.01,0.00,29.7,28.0,00.0,38.5,31.4,34.9,0000.0,0012.68,0006.18,0005.39
2022-08-13 14:36:00,,0833.0,4.99,0.00,29.8,28.1,00.0,38.5,31.5,34.4,0000.0,0012.66,0006.20,0005.39
2022-08-13 14:37:00,,0833.0,5.00,0.00,29.9,28.2,00.0,38.5,31.5,34.7,0000.0,0012.57,0006.16,0005.38
2022-08-13 14:38:00,,0832.9,4.99,0.00,29.9,28.3,00.0,38.5,31.5,34.4,0000.0,0012.75,0006.16,0005.37
2022-08-13 14:39:00,,0832.9,5.00,0.00,29.9,28.4,00.0,38.5,31.5,34.8,0000.0,0012.51,0006.12,0005.36
2022-08-13 14:40:00,,0832.9,5.00,0.00,29.9,28.5,00.0,38.5,31.6,34.7,0000.0,0012.02,0006.08,0005.36
2022-08-13 14:41:00,,0832.9,5.00,0.00,29.9,28.6,00.0,38.5,31.6,34.4,0000.0,0012.81,0006.09,0005.36
2022-08-13 14:42:00,,0832.8,5.00,0.00,30.0,28.6,00.0,38.6,31.7,34.4,0000.0,0013.03,0006.13,0005.38
2022-08-13 14:43:00,,0832.9,5.00,0.00,30.0,28.7,00.0,38.6,31.7,34.5,0000.0,0012.80,0006.19,0005.41
2022-08-13 14:44:00,,0832.8,5.00,0.00,30.0,28.8,00.0,38.6,31.7,34.4,0000.0,0012.71,0006.22,0005.42
2022-08-13 14:45:00,,0832.9,4.99,0.00,30.0,28.6,00.0,38.6,31.6,33.9,0000.0,0011.85,0006.23,0005.43
2022-08-13 14:46:00,,0832.8,5.01,0.00,30.0,28.0,00.0,38.5,31.4,34.1,0000.0,0011.58,0006.24,0005.44
2022-08-13 14:47:00,,0832.8,5.01,0.00,29.9,27.5,00.0,38.5,31.3,34.2,0000.0,0011.62,0006.28,0005.46
2022-08-13 14:48:00,,0832.8,4.99,0.00,29.8,27.4,00.0,38.5,31.3,34.3,0000.0,0011.69,0006.31,0005.48
2022-08-13 14:49:00,,0832.8,5.01,0.00,29.7,27.4,00.0,38.5,31.2,34.3,0000.0,0011.56,0006.32,0005.49
2022-08-13 14:50:00,,0832.8,4.99,0.00,29.7,27.5,00.0,38.5,31.2,34.5,0000.0,0011.84,0006.34,0005.49
2022-08-13 14:51:00,,0832.7,5.01,0.00,29.7,27.7,00.0,38.4,31.3,34.2,0000.0,0012.44,0006.36,0005.51
2022-08-13 14:52:00,,0832.7,5.00,0.00,29.7,27.8,00.0,38.4,31.3,34.4,0000.0,0011.92,0006.37,0005.49
2022-08-13 14:53:00,,0832.8,4.99,0.00,29.6,28.0,00.0,38.4,31.4,34.5,0000.0,0011.52,0006.33,0005.46
2022-08-13 14:54:00,,0832.8,5.00,0.00,29.7,28.1,00.0,38.4,31.4,34.5,0000.0,0011.56,0006.29,0005.43
2022-08-13 14:55:00,,0832.7,5.00,0.00,29.7,28.2,00.0,38.4,31.4,34.0,0000.0,0011.60,0006.25,0005.39
2022-08-13 14:56:00,,0832.7,5.00,0.00,29.7,28.3,00.0,38.4,31.4,34.4,0000.0,0011.34,0006.20,0005.37
2022-08-13 14:57:00,,0832.7,5.00,0.00,29.7,28.4,00.0,38.4,31.5,34.1,0000.0,0011.25,0006.18,0005.35
2022-08-13 14:58:00,,0832.8,5.01,0.00,29.7,28.5,00.0,38.4,31.5,34.1,0000.0,0011.12,0006.13,0005.31
2022-08-13 14:59:00,,0832.8,5.00,0.00,29.7,28.6,00.0,38.5,31.5,34.0,0000.0,0011.16,0006.12,0005.28
